Weather History for KCLT - June, 2013

Change the Weather History Date:

Monday, June 24, 2013

  Actual Average Record
Temperature  
Mean Temperature 77 °F 77 °F  
Max Temperature 85 °F 88 °F 102 °F (1930)
Min Temperature 69 °F 66 °F 55 °F (1972)
Degree Days  
Heating Degree Days 0 0  
Month to date heating degree days 0 0  
Since 1 June heating degree days 0 0  
Since 1 July heating degree days 3221 3385  
Cooling Degree Days 12 12  
Month to date cooling degree days 260 235  
Year to date cooling degree days 429 398  
Since 1 June cooling degree days 260 235  
Growing Degree Days 26 (Base 50)    
Moisture  
Dew Point 70 °F    
Average Humidity 83    
Maximum Humidity 100    
Minimum Humidity 65    
Precipitation  
Precipitation 0.01 in 0.12 in 1.25 in (1980)
Month to date precipitation 6.29 3.08  
Year to date precipitation 25.04 20.04  
Snow  
Snow 0.00 in 0.00 in 0.00 in ()
Month to date snowfall 0.0 0.0  
Since 1 June snowfall 0.0 0.0  
Since 1 July snowfall 2.7 4.3  
Snow Depth 0.00 in    
Sea Level Pressure  
Sea Level Pressure 30.18 in    
Wind  
Wind Speed 6 mph (South)    
Max Wind Speed 17 mph    
Max Gust Speed 28 mph    
Visibility 10 miles    
Events Rain , Thunderstorm    
T = Trace of Precipitation, MM = Missing Value Source: NWS Daily Summary

Daily Weather History Graph

Daily Weather History Graph

Search for Another Location

Airport or City:

Trip Planner

Search our weather history database for the weather conditions in past years. The results will help you decide how hot, cold, wet, or windy it might be!

Date:

Astronomy

Jun. 24, 2013 Rise Set
Actual Time 6:10 AM EDT 8:42 PM EDT
Civil Twilight 5:40 AM EDT 9:12 PM EDT
Nautical Twilight 5:03 AM EDT 9:48 PM EDT
Astronomical Twilight 4:22 AM EDT 10:29 PM EDT
Moon 9:48 PM EDT 7:32 AM EDT
Length of Visible Light 15h 31m
Length of Day
14h 31m
Full, 98% of the Moon is Illuminated
Jun 24
Full
Jun 30
Last Quarter
Jul 8
New
Jul 15
First Quarter
Jul 22
Full

Hourly Weather History & Observations

Time (EDT) Temp. Heat Index Dew Point Humidity Pressure Visibility Wind Dir Wind Speed Gust Speed Precip Events Conditions
12:52 AM 72.0 °F - 69.1 °F 91% 30.18 in 10.0 mi Calm Calm - N/A   Overcast
1:52 AM 71.1 °F - 69.1 °F 93% 30.18 in 10.0 mi Calm Calm - N/A   Overcast
2:52 AM 70.0 °F - 69.1 °F 97% 30.18 in 10.0 mi Calm Calm - N/A   Overcast
3:09 AM 71.6 °F - 69.8 °F 94% 30.21 in 10.0 mi Calm Calm - N/A   Overcast
3:42 AM 73.4 °F - 69.8 °F 88% 30.21 in 10.0 mi Calm Calm - N/A   Overcast
3:52 AM 72.0 °F - 70.0 °F 93% 30.17 in 10.0 mi SSE 3.5 mph - N/A   Overcast
4:52 AM 73.0 °F - 71.1 °F 93% 30.17 in 10.0 mi Calm Calm - N/A   Overcast
5:48 AM 71.6 °F - 69.8 °F 94% 30.20 in 9.0 mi SSE 3.5 mph - N/A   Mostly Cloudy
5:52 AM 72.0 °F - 70.0 °F 93% 30.17 in 9.0 mi SSE 4.6 mph - N/A   Mostly Cloudy
6:52 AM 72.0 °F - 71.1 °F 97% 30.20 in 7.0 mi South 4.6 mph - N/A   Overcast
7:38 AM 73.4 °F - 71.6 °F 94% 30.23 in 8.0 mi SSW 5.8 mph - N/A   Overcast
7:52 AM 73.0 °F - 71.1 °F 93% 30.21 in 9.0 mi SSW 5.8 mph - N/A   Overcast
8:43 AM 75.2 °F - 71.6 °F 89% 30.24 in 10.0 mi WSW 3.5 mph - N/A   Overcast
8:52 AM 75.9 °F - 72.0 °F 87% 30.22 in 10.0 mi Variable 4.6 mph - N/A   Overcast
9:28 AM 78.8 °F - 71.6 °F 78% 30.24 in 10.0 mi Variable 3.5 mph - N/A   Scattered Clouds
9:52 AM 79.0 °F - 71.1 °F 77% 30.21 in 10.0 mi Variable 4.6 mph - N/A   Scattered Clouds
10:52 AM 82.0 °F 86.7 °F 72.0 °F 71% 30.22 in 10.0 mi SSW 4.6 mph - N/A   Scattered Clouds
11:52 AM 84.0 °F 89.6 °F 72.0 °F 67% 30.21 in 10.0 mi SW 4.6 mph - N/A   Scattered Clouds
12:52 PM 79.0 °F - 71.1 °F 77% 30.20 in 10.0 mi SSW 3.5 mph - 0.01 in   Mostly Cloudy
1:49 PM 78.8 °F - 71.6 °F 78% 30.19 in 10.0 mi South 4.6 mph - N/A Thunderstorm Thunderstorm
1:52 PM 79.0 °F - 71.1 °F 77% 30.17 in 10.0 mi South 4.6 mph - N/A Thunderstorm Thunderstorm
2:43 PM 80.6 °F 83.9 °F 69.8 °F 70% 30.17 in 10.0 mi SSW 9.2 mph - N/A   Mostly Cloudy
2:52 PM 81.0 °F 84.9 °F 71.1 °F 72% 30.15 in 10.0 mi SSW 10.4 mph - N/A   Mostly Cloudy
3:52 PM 80.1 °F 83.6 °F 71.1 °F 74% 30.14 in 10.0 mi South 8.1 mph - N/A   Mostly Cloudy
4:52 PM 79.0 °F - 70.0 °F 74% 30.14 in 10.0 mi South 15.0 mph - N/A   Mostly Cloudy
5:52 PM 78.1 °F - 68.0 °F 71% 30.14 in 10.0 mi South 11.5 mph - N/A   Overcast
6:52 PM 77.0 °F - 68.0 °F 74% 30.13 in 10.0 mi Calm Calm - N/A   Mostly Cloudy
7:52 PM 77.0 °F - 69.1 °F 76% 30.12 in 10.0 mi South 8.1 mph - N/A   Mostly Cloudy
8:52 PM 75.9 °F - 70.0 °F 82% 30.14 in 10.0 mi South 5.8 mph - N/A   Mostly Cloudy
9:52 PM 75.0 °F - 71.1 °F 87% 30.13 in 10.0 mi SSW 3.5 mph - N/A   Mostly Cloudy
10:52 PM 73.9 °F - 70.0 °F 87% 30.15 in 10.0 mi South 9.2 mph - N/A   Mostly Cloudy
11:52 PM 73.9 °F - 71.1 °F 91% 30.13 in 10.0 mi South 9.2 mph - N/A   Overcast